Weather History for KCCY - January, 2014

Change the Weather History Date:

Wednesday, January 15, 2014

  Actual Average (KMCW) Record (KMCW)
Temperature  
Mean Temperature 14 °F 16 °F  
Max Temperature 23 °F 24 °F 55 °F (1990)
Min Temperature 5 °F 7 °F -28 °F (1994)
Degree Days  
Heating Degree Days 51 49  
Month to date heating degree days 735  
Since 1 July heating degree days 3824  
Cooling Degree Days 0 0  
Month to date cooling degree days 0  
Year to date cooling degree days 0  
Moisture  
Dew Point 7 °F    
Average Humidity 72    
Maximum Humidity 86    
Minimum Humidity 61    
Precipitation  
Precipitation 0.00 in 0.02 in 0.44 in (1953)
Month to date precipitation 0.39  
Year to date precipitation 0.39  
Snow  
Snow 0.00 in 0.40 in 3.40 in (1956)
Month to date snowfall 4.9  
Since 1 July snowfall 18.9  
Snow Depth -    
Sea Level Pressure  
Sea Level Pressure 29.90 in    
Wind  
Wind Speed 15 mph (SW)    
Max Wind Speed 23 mph    
Max Gust Speed 33 mph    
Visibility 9 miles    
Events Snow    
T = Trace of Precipitation, MM = Missing Value Source: NWS Daily Summary

Daily Weather History Graph

Daily Weather History Graph

Search for Another Location

Airport or City:

Trip Planner

Search our weather history database for the weather conditions in past years. The results will help you decide how hot, cold, wet, or windy it might be!

Date:

Astronomy

Jan. 15, 2014 Rise Set
Actual Time 7:39 AM CST 5:01 PM CST
Civil Twilight 7:07 AM CST 5:32 PM CST
Nautical Twilight 6:32 AM CST 6:07 PM CST
Astronomical Twilight 5:58 AM CST 6:41 PM CST
Moon 5:00 PM CST (1/15) 6:54 AM CST (1/15)
Length of Visible Light 10h 24m
Length of Day
9h 22m
Full, 100% of the Moon is Illuminated
Jan 15
Full
Jan 15
Full
Jan 23
Last Quarter
Jan 30
New
Feb 6
First Quarter

Hourly Weather History & Observations

Time (CST) Temp. Windchill Dew Point Humidity Pressure Visibility Wind Dir Wind Speed Gust Speed Precip Events Conditions
12:15 AM 8.6 °F -8.9 °F 1.4 °F 73% 30.07 in 10.0 mi NW 16.1 mph - N/A   Overcast
12:35 AM 8.6 °F -8.3 °F 1.4 °F 73% 30.07 in 10.0 mi NW 15.0 mph - N/A   Overcast
12:55 AM 8.6 °F -9.5 °F 1.4 °F 73% 30.08 in 10.0 mi NW 17.3 mph - N/A   Overcast
1:15 AM 8.6 °F -8.3 °F 1.4 °F 73% 30.08 in 10.0 mi NW 15.0 mph - N/A   Overcast
1:35 AM 6.8 °F -10.7 °F -0.4 °F 72% 30.09 in 10.0 mi NW 15.0 mph - N/A   Mostly Cloudy
1:55 AM 6.8 °F -11.8 °F -0.4 °F 72% 30.10 in 10.0 mi NW 17.3 mph - N/A   Overcast
2:15 AM 6.8 °F -11.3 °F -0.4 °F 72% 30.10 in 10.0 mi NW 16.1 mph - N/A   Overcast
2:35 AM 6.8 °F -10.0 °F -0.4 °F 72% 30.10 in 10.0 mi NW 13.8 mph - N/A   Mostly Cloudy
2:55 AM 6.8 °F -10.7 °F -0.4 °F 72% 30.10 in 10.0 mi NW 15.0 mph - N/A   Mostly Cloudy
3:15 AM 5.0 °F -13.0 °F -0.4 °F 78% 30.10 in 10.0 mi NW 15.0 mph - N/A   Mostly Cloudy
3:35 AM 5.0 °F -13.6 °F -2.2 °F 72% 30.10 in 10.0 mi NW 16.1 mph - N/A   Partly Cloudy
9:55 AM 5.0 °F -8.1 °F -4.0 °F 66% 30.12 in 10.0 mi NW 8.1 mph - N/A   Clear
10:15 AM 5.0 °F -9.1 °F -4.0 °F 66% 30.12 in 10.0 mi NW 9.2 mph 15.0 mph N/A   Clear
10:35 AM 6.8 °F -6.9 °F -4.0 °F 61% 30.12 in 10.0 mi NW 9.2 mph - N/A   Clear
10:55 AM 6.8 °F -4.8 °F -2.2 °F 67% 30.11 in 10.0 mi NW 6.9 mph - N/A   Partly Cloudy
11:15 AM 6.8 °F -3.5 °F -2.2 °F 67% 30.10 in 10.0 mi WNW 5.8 mph - N/A   Mostly Cloudy
11:35 AM 8.6 °F -5.5 °F -0.4 °F 67% 30.09 in 10.0 mi WNW 10.4 mph - N/A   Scattered Clouds
11:55 AM 8.6 °F -3.7 °F -0.4 °F 67% 30.07 in 10.0 mi WSW 8.1 mph - N/A   Mostly Cloudy
12:15 PM 8.6 °F -5.5 °F 1.4 °F 73% 30.05 in 10.0 mi SW 10.4 mph - N/A   Mostly Cloudy
12:35 PM 10.4 °F -4.8 °F 3.2 °F 73% 30.04 in 10.0 mi WSW 12.7 mph - N/A   Overcast
12:55 PM 12.2 °F -1.0 °F 5.0 °F 73% 30.00 in 10.0 mi SW 10.4 mph - N/A   Overcast
1:15 PM 12.2 °F -1.0 °F 3.2 °F 67% 30.00 in 10.0 mi SW 10.4 mph - N/A   Overcast
1:35 PM 12.2 °F -1.8 °F 5.0 °F 73% 29.99 in 10.0 mi SW 11.5 mph - N/A   Mostly Cloudy
1:55 PM 14.0 °F -0.2 °F 5.0 °F 67% 29.96 in 10.0 mi SSW 12.7 mph - N/A   Mostly Cloudy
2:15 PM 14.0 °F 0.5 °F 5.0 °F 67% 29.95 in 10.0 mi SSW 11.5 mph - N/A   Mostly Cloudy
2:35 PM 14.0 °F -0.8 °F 6.8 °F 73% 29.94 in 10.0 mi SSW 13.8 mph - N/A   Mostly Cloudy
2:55 PM 15.8 °F 1.4 °F 6.8 °F 68% 29.93 in 10.0 mi South 13.8 mph - N/A   Overcast
3:15 PM 15.8 °F 1.4 °F 8.6 °F 73% 29.92 in 10.0 mi South 13.8 mph - N/A   Overcast
3:35 PM 17.6 °F 3.7 °F 8.6 °F 68% 29.92 in 10.0 mi SSW 13.8 mph - N/A   Overcast
3:55 PM 17.6 °F 3.2 °F 8.6 °F 68% 29.91 in 10.0 mi South 15.0 mph - N/A   Overcast
4:15 PM 17.6 °F 3.2 °F 8.6 °F 68% 29.90 in 10.0 mi South 15.0 mph - N/A   Overcast
4:35 PM 17.6 °F 2.7 °F 8.6 °F 68% 29.88 in 10.0 mi South 16.1 mph - N/A   Overcast
4:55 PM 17.6 °F 2.7 °F 10.4 °F 73% 29.87 in 10.0 mi South 16.1 mph - N/A   Overcast
5:15 PM 17.6 °F 2.2 °F 10.4 °F 73% 29.86 in 10.0 mi South 17.3 mph - N/A   Overcast
5:35 PM 17.6 °F 2.2 °F 10.4 °F 73% 29.85 in 10.0 mi South 17.3 mph - N/A   Overcast
5:55 PM 17.6 °F 2.2 °F 12.2 °F 79% 29.82 in 10.0 mi South 17.3 mph - N/A   Mostly Cloudy
6:15 PM 17.6 °F 2.7 °F 12.2 °F 79% 29.81 in 8.0 mi South 16.1 mph - N/A   Overcast
6:35 PM 17.6 °F 1.7 °F 12.2 °F 79% 29.79 in 2.0 mi South 18.4 mph - N/A   Haze
6:55 PM 19.4 °F 3.6 °F 14.0 °F 80% 29.76 in 2.0 mi South 19.6 mph 25.3 mph N/A Snow Light Snow
7:15 PM 19.4 °F 4.1 °F 15.8 °F 86% 29.74 in 1.0 mi South 18.4 mph 28.8 mph N/A Snow Light Snow
7:35 PM 19.4 °F 3.6 °F 15.8 °F 86% 29.75 in 4.0 mi SSW 19.6 mph 27.6 mph N/A   Overcast
7:55 PM 19.4 °F 3.6 °F 15.8 °F 86% 29.74 in 8.0 mi South 19.6 mph - N/A   Overcast
8:15 PM 21.2 °F 6.0 °F 15.8 °F 80% 29.71 in 7.0 mi South 19.6 mph 26.5 mph N/A   Overcast
8:35 PM 21.2 °F 5.2 °F 15.8 °F 80% 29.67 in 5.0 mi South 21.9 mph 27.6 mph N/A   Haze
8:55 PM 21.2 °F 5.2 °F 15.8 °F 80% 29.68 in 6.0 mi SSW 21.9 mph 32.2 mph N/A   Haze
9:15 PM 21.2 °F 6.0 °F 14.0 °F 74% 29.68 in 10.0 mi SSW 19.6 mph 28.8 mph N/A   Overcast
9:35 PM 21.2 °F 6.0 °F 14.0 °F 74% 29.67 in 10.0 mi SSW 19.6 mph 26.5 mph N/A   Overcast
9:55 PM 21.2 °F 4.9 °F 14.0 °F 74% 29.63 in 10.0 mi SSW 23.0 mph 28.8 mph N/A   Overcast
10:15 PM 21.2 °F 4.9 °F 14.0 °F 74% 29.59 in 6.0 mi SSW 23.0 mph 31.1 mph N/A   Haze
10:35 PM 23.0 °F 7.2 °F 14.0 °F 68% 29.59 in 9.0 mi SSW 23.0 mph 33.4 mph N/A   Overcast
10:55 PM 23.0 °F 9.2 °F 14.0 °F 68% 29.60 in 10.0 mi SW 17.3 mph 26.5 mph N/A   Overcast
11:15 PM 23.0 °F 9.2 °F 14.0 °F 68% 29.60 in 10.0 mi SSW 17.3 mph 25.3 mph N/A   Mostly Cloudy
11:35 PM 23.0 °F 9.6 °F 14.0 °F 68% 29.58 in 10.0 mi SSW 16.1 mph 21.9 mph N/A   Scattered Clouds
11:55 PM 23.0 °F 9.6 °F 14.0 °F 68% 29.56 in 10.0 mi SSW 16.1 mph - N/A   Mostly Cloudy